Regional Weather Roundup
Issued by NWS

Home | Current Version | Previous Version | Graphics & Text | Print | Product List | Glossary On
Versions: 1 2 3 4 5 6 7 8 9 10 11 12 13 14 15 16 17 18 19 20 21 22 23 24 25 26 27 28 29 30 31 32 33 34 35 36 37 38 39 40 41 42 43 44 45 46 47 48 49 50
000
ASUS43 KFSD 210410
RWRSD

WEATHER ROUNDUP FOR SOUTH DAKOTA
NATIONAL WEATHER SERVICE SIOUX FALLS SD
1000 PM CST FRI JAN 20 2017

NOTE: "FAIR" INDICATES FEW OR NO CLOUDS BELOW 12,000 FEET WITH NO
SIGNIFICANT WEATHER AND/OR OBSTRUCTIONS TO VISIBILITY.


SDZ001>005-009-010-012>017-210500-
NORTHWEST AND NORTH CENTRAL SOUTH DAKOTA

CITY           SKY/WX    TMP DP  RH WIND       PRES   REMARKS
BUFFALO          N/A     35  30  82 NW16      29.27S WCI  25
FAITH            N/A     23  22  96 W6        29.31S WCI  16
MOBRIDGE       CLOUDY    24  21  88 SE3       29.29S FOG
$$

SDZ012>016-024>037-041>051-057-063-072>074-210500-
SOUTHWEST AND SOUTH CENTRAL SOUTH DAKOTA

CITY           SKY/WX    TMP DP  RH WIND       PRES   REMARKS
RAPID CTY ARPT CLOUDY    37  31  78 NW12      29.35R
PIERRE         CLOUDY    23  21  92 SW8       29.33S FOG     WCI  14
CUSTER         LGT SNOW  30  28  92 SW3       29.33F FOG
ELLSWORTH AFB  CLOUDY    36  32  87 NW13      29.34R
PHILIP         MOCLDY    27  24  89 W5        29.33F WCI  22
PINE RIDGE     CLOUDY    35  33  92 W6        29.36F
SPEARFISH        N/A    N/A N/A N/A MISG        N/A
WINNER         FAIR      34  30  85 W3        29.34R
$$

SDZ004>011-016>023-039-040-210500-
NORTHEAST SOUTH DAKOTA

CITY           SKY/WX    TMP DP  RH WIND       PRES   REMARKS
ABERDEEN       CLOUDY    32  29  88 CALM      29.36S
WATERTOWN      FOG       35  35 100 SE12      29.38S VSB 1/2 WCI  27
BROOKINGS      CLOUDY    36  35  96 SE15      29.39F FOG
SISSETON         N/A     35  35 100 S15       29.40F WCI  25
$$

SDZ017-020-022-023-036>040-048>070-210500-
SOUTHEAST SOUTH DAKOTA

CITY           SKY/WX    TMP DP  RH WIND       PRES   REMARKS
SIOUX FALLS    FOG       38  38 100 SE9       29.42F VSB 1/2
HURON          CLOUDY    38  38 100 S13       29.35S
CHAMBERLAIN    CLOUDY    30  30  98 CALM      29.35S
MITCHELL       CLOUDY    39  39 100 S15       29.38S FOG
YANKTON        CLOUDY    39  37  93 SE6       29.41S VSB 1/2
$$

ABBREVIATIONS USED IN REMARKS
   TC - TEMPERATURE IN CELSIUS
  WCI - WIND CHILL INDEX
   HX - HEAT INDEX
  VSB - VISIBILITY





USA.gov is the U.S. government's official web portal to all federal, state and local government web resources and services.